STP-S29A OBJECT B

Last updated on Sun Apr 12 2026 00:02:10 GMT+0000 (Coordinated Universal Time)

1 68628U 26074B 26101.46146787 .00006019 00000+0 26283-3 0 9991 2 68628 60.0223 74.1323 0014287 310.6359 49.3478 15.23275523 600
UTC large
Height (km)
Speed (km/s)
/
Latitude / Longitude
Inclination (degrees)
Orbital Period (minutes)
Azimuth
Elevation
Range (km)
Doppler Factor

Next 0 passes for location: London (51.5072 / 0.1276)

Sorry there are no passes over London.
STP-S29A OBJECT B